User: anonymous   Login
Location: Amsterdam
(30.7274°N, 84.4357°W)
Time: 11:57:03
(UTC+00:00)
Language:

Oscar 19 - Orbit

View from above orbital plane
View from above orbital plane
View from above satellite
View from above satellite

Ground track
Ground track

The orbit is defined by the following mean orbital elements,

1 20442U          26073.78400388 +.00000000 +00000-0 +84803-4 0 00008
2 20442  98.8932  92.9553 0012531 120.6273 239.6149 14.34090436    07
Epoch (UTC): 14 March 2026 18:48:57
Eccentricity: 0.0012531
inclination: 98.8932°
perigee height: 769 km
apogee height: 787 km
right ascension of ascending node: 92.9553°
argument of perigee: 120.6273°
revolutions per day: 14.34090436
mean anomaly at epoch: 239.6149°

The dashed part of the orbit path shows where the satellite is in the earth's shadow,  

DLR